^^
Meteo Knjazevac Station Historical Data
Daily Summary for January 26, 2022 Units:  Metric    English   Both
Daily Weekly Monthly Yearly Custom
  High: Low: Average:
Temperature: 1 °C -4.6 °C -1.4 °C
Dew Point: -0.9 °C -8.3 °C -4.3 °C
Humidity: 91% 70% 81%
Wind Speed: 19.3km/h 0km/h 6.4km/h
Wind Gust: 33.8km/h - -
Wind- - SSW
Pressure: 1028.7 hPa 1026 hPa -
Precipitation: 0 mm    
Historical Graphs
 
 
Tabular Data for January 26, 2022
Time Temperature Dew Point Pressure Wind Wind Speed Wind Gust Humidity Rainfall Rate (Hourly) solar Conditions
00:00 -4.6 °C -8.3 °C 1028.7 hPa SW 1.6 km/h 9.7 km/h 75% 0 mm 0 W/m2
00:10 -4.6 °C -8.3 °C 1028.7 hPa SSE 3.2 km/h 11.3 km/h 75% 0 mm 0 W/m2
00:20 -4.5 °C -8.3 °C 1028.7 hPa SSE 4.8 km/h 9.7 km/h 75% 0 mm 0 W/m2
00:30 -4.4 °C -8.2 °C 1028.3 hPa SE 3.2 km/h 11.3 km/h 75% 0 mm 0 W/m2
00:40 -4.4 °C -8.2 °C 1028.3 hPa SSE 4.8 km/h 11.3 km/h 75% 0 mm 0 W/m2
00:50 -4.4 °C -8.2 °C 1028.3 hPa SSW 4.8 km/h 8 km/h 75% 0 mm 0 W/m2
01:00 -4.4 °C -8.2 °C 1028 hPa SSE 3.2 km/h 8 km/h 75% 0 mm 0 W/m2
01:10 -4.3 °C -8.2 °C 1028.3 hPa SE 3.2 km/h 9.7 km/h 74% 0 mm 0 W/m2
01:20 -4.2 °C -8.2 °C 1028 hPa South 3.2 km/h 11.3 km/h 74% 0 mm 0 W/m2
01:30 -4.2 °C -8.2 °C 1028 hPa Calm   9.7 km/h 74% 0 mm 0 W/m2
01:40 -4.1 °C -8.1 °C 1028 hPa Calm   9.7 km/h 74% 0 mm 0 W/m2
01:50 -4.1 °C -8.2 °C 1028 hPa SSE 4.8 km/h 11.3 km/h 73% 0 mm 0 W/m2
02:00 -4 °C -8.1 °C 1028 hPa SE 4.8 km/h 12.9 km/h 73% 0 mm 0 W/m2
02:10 -4 °C -8.1 °C 1028 hPa SE 8 km/h 12.9 km/h 73% 0 mm 0 W/m2
02:20 -3.9 °C -8.1 °C 1028 hPa SSE 3.2 km/h 11.3 km/h 73% 0 mm 0 W/m2
02:30 -3.9 °C -8.1 °C 1027.7 hPa SE 3.2 km/h 14.5 km/h 73% 0 mm 0 W/m2
02:40 -3.8 °C -7.9 °C 1027.7 hPa SE 4.8 km/h 12.9 km/h 73% 0 mm 0 W/m2
02:50 -3.8 °C -7.9 °C 1027.7 hPa SE 4.8 km/h 19.3 km/h 73% 0 mm 0 W/m2
03:00 -3.8 °C -7.9 °C 1027.7 hPa SE 3.2 km/h 19.3 km/h 73% 0 mm 0 W/m2
03:10 -3.7 °C -7.8 °C 1027.7 hPa SSE 8 km/h 14.5 km/h 73% 0 mm 0 W/m2
03:20 -3.7 °C -7.8 °C 1027.7 hPa SE 4.8 km/h 16.1 km/h 73% 0 mm 0 W/m2
03:30 -3.7 °C -7.8 °C 1027.7 hPa SSE 1.6 km/h 12.9 km/h 73% 0 mm 0 W/m2
03:40 -3.6 °C -7.7 °C 1027.7 hPa SSW 3.2 km/h 9.7 km/h 73% 0 mm 0 W/m2
03:50 -3.6 °C -7.8 °C 1027.3 hPa SW 8 km/h 11.3 km/h 72% 0 mm 0 W/m2
04:00 -3.5 °C -7.8 °C 1027.7 hPa WSW 9.7 km/h 14.5 km/h 72% 0 mm 0 W/m2
04:10 -3.5 °C -8.2 °C 1027.7 hPa SW 11.3 km/h 16.1 km/h 70% 0 mm 0 W/m2
04:20 -3.4 °C -8.1 °C 1027.7 hPa SW 9.7 km/h 14.5 km/h 70% 0 mm 0 W/m2
04:30 -3.4 °C -8.1 °C 1027.7 hPa WSW 11.3 km/h 20.9 km/h 70% 0 mm 0 W/m2
04:40 -3.4 °C -8.1 °C 1027.7 hPa WSW 12.9 km/h 20.9 km/h 70% 0 mm 0 W/m2
04:50 -3.4 °C -8.1 °C 1027.7 hPa WSW 14.5 km/h 20.9 km/h 70% 0 mm 0 W/m2
05:00 -3.4 °C -8.1 °C 1027.7 hPa SW 9.7 km/h 20.9 km/h 70% 0 mm 0 W/m2
05:10 -3.4 °C -8.1 °C 1027.3 hPa WSW 8 km/h 17.7 km/h 70% 0 mm 0 W/m2
05:20 -3.4 °C -8.1 °C 1027.3 hPa WSW 8 km/h 14.5 km/h 70% 0 mm 0 W/m2
05:30 -3.4 °C -7.7 °C 1027.3 hPa SW 4.8 km/h 11.3 km/h 72% 0 mm 0 W/m2
05:40 -3.4 °C -8.1 °C 1027.7 hPa WSW 8 km/h 12.9 km/h 70% 0 mm 0 W/m2
05:50 -3.4 °C -8.1 °C 1027.7 hPa WSW 4.8 km/h 11.3 km/h 70% 0 mm 0 W/m2
06:00 -3.4 °C -7.7 °C 1027.7 hPa WSW 9.7 km/h 12.9 km/h 72% 0 mm 0 W/m2
06:10 -3.4 °C -7.8 °C 1027.7 hPa WSW 4.8 km/h 14.5 km/h 72% 0 mm 0 W/m2
06:20 -3.5 °C -7.8 °C 1027.7 hPa SW 8 km/h 12.9 km/h 72% 0 mm 0 W/m2
06:30 -3.4 °C -7.8 °C 1027.7 hPa WSW 8 km/h 12.9 km/h 72% 0 mm 0 W/m2
06:40 -3.5 °C -7.8 °C 1027.7 hPa WSW 9.7 km/h 14.5 km/h 72% 0 mm 0 W/m2
06:50 -3.5 °C -7.8 °C 1027.7 hPa WSW 8 km/h 9.7 km/h 72% 0 mm 0 W/m2
07:00 -3.4 °C -7.7 °C 1027.7 hPa SW 4.8 km/h 11.3 km/h 72% 0 mm 1 W/m2
07:10 -3.4 °C -7.7 °C 1027.7 hPa SW 4.8 km/h 11.3 km/h 72% 0 mm 3 W/m2
07:20 -3.3 °C -7.4 °C 1027.7 hPa WSW 4.8 km/h 11.3 km/h 73% 0 mm 4 W/m2
07:30 -3.2 °C -7.3 °C 1027.7 hPa SW 9.7 km/h 12.9 km/h 73% 0 mm 10 W/m2
07:40 -3.2 °C -7.3 °C 1027.7 hPa SW 8 km/h 11.3 km/h 73% 0 mm 11 W/m2
07:50 -3.1 °C -7.1 °C 1027.7 hPa WSW 8 km/h 12.9 km/h 74% 0 mm 16 W/m2
08:00 -3.1 °C -7.1 °C 1027.3 hPa WSW 4.8 km/h 9.7 km/h 74% 0 mm 16 W/m2
08:10 -3 °C -7 °C 1027.3 hPa WSW 4.8 km/h 9.7 km/h 74% 0 mm 18 W/m2
08:20 -3 °C -6.8 °C 1027.3 hPa SW 4.8 km/h 9.7 km/h 75% 0 mm 21 W/m2
08:30 -2.9 °C -6.4 °C 1027.3 hPa SW 8 km/h 12.9 km/h 77% 0 mm 21 W/m2
08:40 -2.9 °C -6.2 °C 1027.3 hPa SW 4.8 km/h 12.9 km/h 78% 0 mm 32 W/m2
08:50 -2.8 °C -6.1 °C 1027.3 hPa SW 8 km/h 11.3 km/h 78% 0 mm 27 W/m2
09:00 -2.7 °C -5.8 °C 1027.3 hPa SW 3.2 km/h 11.3 km/h 79% 0 mm 27 W/m2
09:10 -2.5 °C -5.7 °C 1027.7 hPa South 3.2 km/h 8 km/h 79% 0 mm 35 W/m2
09:20 -2.5 °C -5.8 °C 1027.7 hPa Calm   8 km/h 78% 0 mm 30 W/m2
09:30 -2.4 °C -5.7 °C 1027.3 hPa South 3.2 km/h 11.3 km/h 78% 0 mm 37 W/m2
09:40 -2.3 °C -5.3 °C 1027.3 hPa SSE 1.6 km/h 11.3 km/h 80% 0 mm 44 W/m2
09:50 -2.2 °C -5.5 °C 1027.7 hPa SE 4.8 km/h 12.9 km/h 78% 0 mm 48 W/m2
10:00 -2.1 °C -5.4 °C 1027.7 hPa SE 4.8 km/h 12.9 km/h 78% 0 mm 37 W/m2
10:10 -2.1 °C -5.4 °C 1027.7 hPa SE 8 km/h 16.1 km/h 78% 0 mm 40 W/m2
10:20 -2.1 °C -5.4 °C 1027.7 hPa SE 4.8 km/h 12.9 km/h 78% 0 mm 41 W/m2
10:30 -2.1 °C -5.3 °C 1027.7 hPa SE 1.6 km/h 14.5 km/h 79% 0 mm 36 W/m2
10:40 -2 °C -5.2 °C 1027.7 hPa South 4.8 km/h 12.9 km/h 79% 0 mm 67 W/m2
10:50 -1.9 °C -4.9 °C 1027.7 hPa SE 3.2 km/h 14.5 km/h 80% 0 mm 31 W/m2
11:00 -1.8 °C -4.8 °C 1027.3 hPa SSE 3.2 km/h 11.3 km/h 80% 0 mm 41 W/m2
11:10 -1.8 °C -4.6 °C 1027.3 hPa ESE 4.8 km/h 14.5 km/h 81% 0 mm 61 W/m2
11:20 -1.7 °C -4.6 °C 1027.3 hPa SSE 3.2 km/h 9.7 km/h 81% 0 mm 86 W/m2
11:30 -1.6 °C -4.4 °C 1027.3 hPa SSE 4.8 km/h 11.3 km/h 81% 0 mm 101 W/m2
11:40 -1.4 °C -4.2 °C 1027 hPa SE 4.8 km/h 14.5 km/h 81% 0 mm 93 W/m2
11:50 -1.2 °C -3.7 °C 1027 hPa SSW 1.6 km/h 11.3 km/h 83% 0 mm 164 W/m2
12:00 -1 °C -3.5 °C 1027 hPa SSE 1.6 km/h 9.7 km/h 83% 0 mm 167 W/m2
12:10 -0.7 °C -3.1 °C 1027 hPa WSW 4.8 km/h 9.7 km/h 84% 0 mm 156 W/m2
12:20 -0.4 °C -2.8 °C 1026.6 hPa SSE 3.2 km/h 9.7 km/h 84% 0 mm 124 W/m2
12:30 -0.2 °C -2.7 °C 1026.6 hPa NNE 3.2 km/h 8 km/h 83% 0 mm 115 W/m2
12:40 -0.1 °C -2.7 °C 1026.6 hPa North 1.6 km/h 6.4 km/h 83% 0 mm 120 W/m2
12:50 0.1 °C -2.4 °C 1026.6 hPa ESE 3.2 km/h 8 km/h 83% 0 mm 147 W/m2
13:00 0.2 °C -2.3 °C 1026.3 hPa NNE 1.6 km/h 8 km/h 83% 0 mm 172 W/m2
13:10 0.4 °C -2.5 °C 1026.3 hPa East 1.6 km/h 9.7 km/h 81% 0 mm 153 W/m2
13:20 0.6 °C -2.3 °C 1026.3 hPa NE 1.6 km/h 8 km/h 81% 0 mm 180 W/m2
13:30 0.7 °C -2.2 °C 1026.3 hPa WSW 3.2 km/h 9.7 km/h 81% 0 mm 200 W/m2
13:40 0.9 °C -2 °C 1026 hPa WSW 11.3 km/h 14.5 km/h 81% 0 mm 150 W/m2
13:50 1 °C -1.9 °C 1026 hPa WSW 9.7 km/h 20.9 km/h 81% 0 mm 99 W/m2
14:00 1 °C -1.9 °C 1026.3 hPa WSW 11.3 km/h 19.3 km/h 81% 0 mm 106 W/m2
14:10 1 °C -1.6 °C 1026 hPa WSW 11.3 km/h 20.9 km/h 83% 0 mm 102 W/m2
14:20 1 °C -1.6 °C 1026.3 hPa WSW 12.9 km/h 22.5 km/h 83% 0 mm 107 W/m2
14:30 0.9 °C -1.7 °C 1026 hPa West 14.5 km/h 22.5 km/h 83% 0 mm 113 W/m2
14:40 0.9 °C -1.5 °C 1026 hPa WSW 19.3 km/h 30.6 km/h 84% 0 mm 92 W/m2
14:50 0.8 °C -1.6 °C 1026 hPa WSW 14.5 km/h 29 km/h 84% 0 mm 92 W/m2
15:00 0.8 °C -1.4 °C 1026 hPa WSW 19.3 km/h 33.8 km/h 85% 0 mm 86 W/m2
15:10 0.8 °C -1.4 °C 1026.3 hPa West 16.1 km/h 32.2 km/h 85% 0 mm 68 W/m2
15:20 0.7 °C -1.6 °C 1026.3 hPa WSW 14.5 km/h 22.5 km/h 85% 0 mm 62 W/m2
15:30 0.7 °C -1.4 °C 1026.3 hPa WSW 8 km/h 22.5 km/h 86% 0 mm 34 W/m2
15:40 0.7 °C -1.4 °C 1026.3 hPa WSW 12.9 km/h 20.9 km/h 86% 0 mm 45 W/m2
15:50 0.7 °C -1.4 °C 1026.3 hPa WSW 11.3 km/h 22.5 km/h 86% 0 mm 45 W/m2
16:00 0.7 °C -1.4 °C 1026.3 hPa WSW 11.3 km/h 20.9 km/h 86% 0 mm 27 W/m2
16:10 0.6 °C -1.5 °C 1026.3 hPa WSW 9.7 km/h 22.5 km/h 86% 0 mm 11 W/m2
16:20 0.5 °C -1.3 °C 1026.3 hPa West 11.3 km/h 22.5 km/h 88% 0 mm 9 W/m2
16:30 0.4 °C -1.3 °C 1026.3 hPa West 4.8 km/h 12.9 km/h 88% 0 mm 4 W/m2
16:40 0.4 °C -1.3 °C 1026.3 hPa WSW 12.9 km/h 19.3 km/h 88% 0 mm 0 W/m2
16:50 0.3 °C -1.4 °C 1026.6 hPa WSW 11.3 km/h 19.3 km/h 88% 0 mm 0 W/m2
17:00 0.3 °C -1.4 °C 1026.6 hPa WSW 8 km/h 19.3 km/h 88% 0 mm 0 W/m2
17:10 0.3 °C -1.3 °C 1026.6 hPa WSW 8 km/h 12.9 km/h 89% 0 mm 0 W/m2
17:20 0.3 °C -1.3 °C 1026.6 hPa WSW 9.7 km/h 14.5 km/h 89% 0 mm 0 W/m2
17:30 0.3 °C -1.3 °C 1026.6 hPa WSW 8 km/h 12.9 km/h 89% 0 mm 0 W/m2
17:40 0.3 °C -1.3 °C 1026.6 hPa WSW 8 km/h 12.9 km/h 89% 0 mm 0 W/m2
17:50 0.3 °C -1.3 °C 1027 hPa WSW 4.8 km/h 14.5 km/h 89% 0 mm 0 W/m2
18:00 0.2 °C -1.4 °C 1027 hPa WSW 1.6 km/h 8 km/h 89% 0 mm 0 W/m2
18:10 0.2 °C -1.6 °C 1027 hPa SW 3.2 km/h 8 km/h 88% 0 mm 0 W/m2
18:20 0.2 °C -1.4 °C 1027 hPa WSW 8 km/h 16.1 km/h 89% 0 mm 0 W/m2
18:30 0.3 °C -1.2 °C 1027 hPa SW 4.8 km/h 16.1 km/h 90% 0 mm 0 W/m2
18:40 0.3 °C -1.1 °C 1027 hPa WSW 9.7 km/h 14.5 km/h 90% 0 mm 0 W/m2
18:50 0.3 °C -1.2 °C 1027 hPa WSW 4.8 km/h 14.5 km/h 90% 0 mm 0 W/m2
19:00 0.3 °C -1 °C 1027 hPa WSW 9.7 km/h 12.9 km/h 91% 0 mm 0 W/m2
19:10 0.3 °C -1 °C 1027 hPa WSW 9.7 km/h 14.5 km/h 91% 0 mm 0 W/m2
19:20 0.3 °C -1 °C 1027 hPa WSW 9.7 km/h 14.5 km/h 91% 0 mm 0 W/m2
19:30 0.3 °C -1 °C 1027 hPa WSW 8 km/h 16.1 km/h 91% 0 mm 0 W/m2
19:40 0.3 °C -1 °C 1027 hPa WSW 9.7 km/h 16.1 km/h 91% 0 mm 0 W/m2
19:50 0.3 °C -1 °C 1027 hPa WSW 8 km/h 16.1 km/h 91% 0 mm 0 W/m2
20:10 0.3 °C -1 °C 1027 hPa WSW 8 km/h 17.7 km/h 91% 0 mm 0 W/m2
20:20 0.4 °C -0.9 °C 1027 hPa WSW 8 km/h 14.5 km/h 91% 0 mm 0 W/m2
20:30 0.4 °C -0.9 °C 1027 hPa WSW 8 km/h 16.1 km/h 91% 0 mm 0 W/m2
20:40 0.4 °C -0.9 °C 1027 hPa WSW 8 km/h 14.5 km/h 91% 0 mm 0 W/m2
20:50 0.4 °C -0.9 °C 1027 hPa WSW 4.8 km/h 11.3 km/h 91% 0 mm 0 W/m2
21:00 0.5 °C -0.9 °C 1027 hPa SW 4.8 km/h 9.7 km/h 90% 0 mm 0 W/m2
21:10 0.5 °C -0.9 °C 1027 hPa WSW 4.8 km/h 11.3 km/h 90% 0 mm 0 W/m2
21:20 0.5 °C -0.9 °C 1027 hPa WSW 4.8 km/h 12.9 km/h 90% 0 mm 0 W/m2
21:30 0.5 °C -0.9 °C 1027 hPa WSW 8 km/h 12.9 km/h 90% 0 mm 0 W/m2
21:40 0.5 °C -0.9 °C 1027 hPa WNW 4.8 km/h 11.3 km/h 90% 0 mm 0 W/m2
21:50 0.6 °C -1 °C 1027 hPa West 4.8 km/h 12.9 km/h 89% 0 mm 0 W/m2
22:00 0.6 °C -1 °C 1027 hPa SSW 3.2 km/h 8 km/h 89% 0 mm 0 W/m2
22:10 0.6 °C -1 °C 1027 hPa NE 3.2 km/h 9.7 km/h 89% 0 mm 0 W/m2
22:20 0.5 °C -1.1 °C 1027 hPa NNE 1.6 km/h 4.8 km/h 89% 0 mm 0 W/m2
22:30 0.5 °C -1.1 °C 1027 hPa Calm   4.8 km/h 89% 0 mm 0 W/m2
22:40 0.5 °C -1.1 °C 1027 hPa NE 3.2 km/h 9.7 km/h 89% 0 mm 0 W/m2
22:50 0.5 °C -1.1 °C 1027 hPa Calm   6.4 km/h 89% 0 mm 0 W/m2
23:00 0.4 °C -1.2 °C 1027 hPa NW 1.6 km/h 3.2 km/h 89% 0 mm 0 W/m2
23:10 0.4 °C -1.2 °C 1027 hPa NNW 1.6 km/h 4.8 km/h 89% 0 mm 0 W/m2
23:20 0.4 °C -1.2 °C 1027 hPa NNW 3.2 km/h 8 km/h 89% 0 mm 0 W/m2
23:30 0.4 °C -1.1 °C 1027 hPa WNW 8 km/h 9.7 km/h 90% 0 mm 0 W/m2
23:40 0.5 °C -0.9 °C 1026.6 hPa West 8 km/h 12.9 km/h 90% 0 mm 0 W/m2
23:50 0.5 °C -0.9 °C 1026.6 hPa West 3.2 km/h 11.3 km/h 90% 0 mm 0 W/m2
Knjazevac, Serbia
Compliments of Weather Underground - 2 mb